This is the latest recevied weather packets stored in our database for station/object CE3MXM-13. If no packets are shown the sender has not sent any weather packets the latest 10 day(s).
| Time | Temp. | Humidity | Pressure | Rain* | Wind** | Luminosity | Snow |
|---|---|---|---|---|---|---|---|
| 1777820947 | 21.67° C | 46% | 1013.3 hPa | - | - | - | - |
| 1777820647 | 21.67° C | 46% | 1013.1 hPa | - | - | - | - |
| 1777820347 | 21.67° C | 45% | 1013.3 hPa | - | - | - | - |
| 1777820046 | 21.11° C | 48% | 1013 hPa | - | - | - | - |
| 1777819746 | 20.56° C | 50% | 1013.4 hPa | - | - | - | - |
| 1777819448 | 20° C | 52% | 1013.3 hPa | - | - | - | - |
| 1777819146 | 20.56° C | 53% | 1013.2 hPa | - | - | - | - |
| 1777818846 | 20° C | 51% | 1013.1 hPa | - | - | - | - |
| 1777818546 | 19.44° C | 53% | 1013.2 hPa | - | - | - | - |
| 1777818246 | 18.89° C | 55% | 1013.3 hPa | - | - | - | - |
| 1777817945 | 18.89° C | 58% | 1013.6 hPa | - | - | - | - |
| 1777817646 | 18.89° C | 54% | 1013.5 hPa | - | - | - | - |
| 1777817345 | 18.33° C | 59% | 1013.5 hPa | - | - | - | - |
| 1777817045 | 18.33° C | 58% | 1013.4 hPa | - | - | - | - |
| 1777816745 | 17.78° C | 62% | 1013.2 hPa | - | - | - | - |
| 1777816445 | 16.67° C | 65% | 1013.4 hPa | - | - | - | - |
| 1777816145 | 15.56° C | 68% | 1013 hPa | - | - | - | - |
| 1777815845 | 14.44° C | 75% | 1013.2 hPa | - | - | - | - |
| 1777815545 | 14.44° C | 90% | 1013.2 hPa | - | - | - | - |
| 1777815245 | 13.33° C | 90% | 1013.1 hPa | - | - | - | - |
| 1777814945 | 13.33° C | 96% | 1012.7 hPa | - | - | - | - |
| 1777814644 | 12.78° C | 98% | 1012.7 hPa | - | - | - | - |
| 1777814345 | 11.67° C | 98% | 1012.8 hPa | - | - | - | - |
| 1777814044 | 11.11° C | 99% | 1013 hPa | - | - | - | - |
| 1777813744 | 10.56° C | 98% | 1012.9 hPa | - | - | - | - |
* Rain since midnight (hover to see other rain measurements)
** Current wind speed in m/s (hover to see current wind gust speed)